Location: Sungai Bunut
(2.6333°N, 113.7333°E)
Time: 02:32:48
(UTC+00:00)

S-56A Canister/Altair - Pass Details

Date: 12 December 2023
Orbit: 640 x 2488 km, 38.9° (Epoch: 24 February)

Event Time Altitude Azimuth Distance (km) Brightness Sun altitude
Rises 10:08:26 0° 303° (WNW) 3,406 11.4 1.3°
Reaches altitude 10° 10:10:37 10° 300° (WNW) 2,631 10.9 0.8°
Maximum altitude 10:16:52 64° 219° (SW) 1,321 9.1 -0.6°
Drops below altitude 10° 10:26:28 10° 140° (SE) 3,946 11.0 -2.8°
Sets 10:30:26 0° 137° (SE) 5,234 11.6 -3.7°
